Charlottetown, Prince Edward Island

10:28 PM ADT on July 26, 2017 (GMT -0300)
Charlottetown

Weather History for CYYG - December, 2013

Change the Weather History Date:

Sunday, December 29, 2013

  Actual Average Record
Temperature  
Mean Temperature 24 °F -  
Max Temperature 30 °F 26 °F 46 °F (2008)
Min Temperature 17 °F 10 °F 8 °F (1997)
Degree Days  
Heating Degree Days 42    
Moisture  
Dew Point 17 °F    
Average Humidity 82    
Maximum Humidity 93    
Minimum Humidity 56    
Precipitation  
Precipitation 0.20 in 0.14 in - ()
Sea Level Pressure  
Sea Level Pressure 30.07 in    
Wind  
Wind Speed 10 mph ()    
Max Wind Speed 14 mph    
Max Gust Speed 22 mph    
Visibility 10.1 miles    
Events Rain , Snow    
Averages and records for this station are not official NWS values.
T = Trace of Precipitation, MM = Missing Value Source: Averaged Metar Reports

Daily Weather History Graph

Daily Weather History Graph

Search for Another Location

Airport or City:

Trip Planner

Search our weather history database for the weather conditions in past years. The results will help you decide how hot, cold, wet, or windy it might be!

Date:

Astronomy

Dec. 29, 2013 Rise Set
Actual Time 7:55 AM AST 4:34 PM AST
Civil Twilight 7:20 AM AST 5:09 PM AST
Nautical Twilight 6:42 AM AST 5:47 PM AST
Astronomical Twilight 6:05 AM AST 6:23 PM AST
Moon 4:28 AM AST (12/29) 2:12 PM AST (12/29)
Length of Visible Light 9h 48m
Length of Day
8h 38m
Waning Crescent, 11% of the Moon is Illuminated
Dec 29
Waning Crescent
Jan 1
New
Jan 7
First Quarter
Jan 16
Full
Jan 24
Last Quarter

Hourly Weather History & Observations

Time (AST) Temp. Windchill Dew Point Humidity Pressure Visibility Wind Dir Wind Speed Gust Speed Precip Events Conditions
12:00 AM 30.2 °F 20.8 °F 26.6 °F 86% 29.89 in 15.0 mi West 11.5 mph - N/A   Overcast
1:00 AM 30.2 °F 19.8 °F 26.6 °F 86% 29.91 in 15.0 mi West 13.8 mph 21.9 mph N/A   Overcast
2:00 AM 30 °F - 26 °F 79% 29.93 in 15 mi West 10.4 mph - -   Overcast
2:00 AM 30.2 °F 21.3 °F 26.6 °F 86% 29.92 in 15.0 mi West 10.4 mph - N/A   Overcast
3:00 AM 28.4 °F 19.7 °F 24.8 °F 86% 29.94 in 15.0 mi West 9.2 mph - N/A   Mostly Cloudy
4:00 AM 26.6 °F 17.5 °F 23.0 °F 86% 29.96 in 15.0 mi West 9.2 mph - N/A   Mostly Cloudy
5:00 AM 26.6 °F 16.8 °F 21.2 °F 80% 29.99 in 15.0 mi NNW 10.4 mph 19.6 mph N/A   Overcast
6:00 AM 23.0 °F 11.7 °F 19.4 °F 86% 30.05 in - NNW 11.5 mph 18.4 mph N/A   Overcast
7:00 AM 21.2 °F 9.5 °F 14.0 °F 74% 30.08 in 15.0 mi NNW 11.5 mph 21.9 mph N/A   Overcast
8:00 AM 21 °F - 12 °F 56% 30.12 in 15 mi NNW 12.7 mph - -   Overcast
8:00 AM 21.2 °F 8.9 °F 12.2 °F 68% 30.12 in 15.0 mi NNW 12.7 mph 18.4 mph N/A   Overcast
9:00 AM 19.4 °F 7.9 °F 12.2 °F 74% 30.13 in 15.0 mi NNW 10.4 mph - N/A   Overcast
10:00 AM 19.4 °F 10.4 °F 12.2 °F 74% 30.16 in 15.0 mi NNW 6.9 mph - N/A   Overcast
11:00 AM 21.2 °F 14.9 °F 12.2 °F 68% 30.17 in 15.0 mi North 4.6 mph - N/A   Overcast
11:23 AM 21.2 °F 10.1 °F 14.0 °F 74% 30.17 in 12.0 mi North 10.4 mph - N/A Snow Light Snow Showers
12:00 PM 19.4 °F 10.4 °F 14.0 °F 80% 30.17 in 12.0 mi NNE 6.9 mph - N/A Snow Light Snow
12:22 PM 19.4 °F 9.5 °F 14.0 °F 80% 30.17 in 2.5 mi NNE 8.1 mph - N/A Snow Light Snow
12:33 PM 19.4 °F 9.5 °F 15.8 °F 86% 30.16 in 1.5 mi NNE 8.1 mph - N/A Snow Light Snow
1:00 PM 19.4 °F 8.6 °F 15.8 °F 86% 30.16 in 1.2 mi NNE 9.2 mph - N/A Snow Light Snow
2:00 PM 18 °F - 14 °F 79% 30.14 in 3 mi NE 11.5 mph - - Snow Light Snow
2:00 PM 17.6 °F 5.0 °F 14.0 °F 86% 30.14 in 3.0 mi NE 11.5 mph - N/A Snow Light Snow
3:00 PM 17.6 °F 5.0 °F 14.0 °F 86% 30.14 in 15.0 mi NE 11.5 mph - N/A Snow Light Snow
4:00 PM 17.6 °F 5.7 °F 12.2 °F 79% 30.15 in 15.0 mi East 10.4 mph - N/A   Overcast
5:00 PM 17.6 °F 5.0 °F 12.2 °F 79% 30.12 in 15.0 mi ENE 11.5 mph - N/A   Overcast
6:00 PM 17.6 °F 5.0 °F 12.2 °F 79% 30.10 in 15.0 mi East 11.5 mph - N/A   Overcast
7:00 PM 17.6 °F 5.7 °F 12.2 °F 79% 30.09 in 6.0 mi East 10.4 mph - N/A Snow Light Snow
7:42 PM 17.6 °F 5.0 °F 15.8 °F 93% 30.08 in 6.0 mi ENE 11.5 mph - N/A   Light Freezing Drizzle
8:00 PM 18 °F - 16 °F 89% 30.07 in 5 mi ENE 11.5 mph - - Rain Light Freezing Drizzle
8:00 PM 17.6 °F 5.0 °F 15.8 °F 93% 30.07 in 5.0 mi ENE 11.5 mph - N/A   Light Freezing Drizzle
8:38 PM 17.6 °F 5.0 °F 15.8 °F 93% 30.04 in 3.0 mi East 11.5 mph - N/A Snow Light Snow
9:00 PM 17.6 °F 5.7 °F 15.8 °F 93% 30.03 in 3.0 mi East 10.4 mph - N/A Snow Light Snow
10:00 PM 17.6 °F 5.7 °F 15.8 °F 93% 29.97 in 3.0 mi ENE 10.4 mph - N/A Snow Light Snow
11:00 PM 19.4 °F 8.6 °F 17.6 °F 93% 29.91 in 2.0 mi East 9.2 mph - N/A Snow Light Snow